Hourly Data Report for October 24, 2016

All times are specified in Local Standard Time (LST). Add 1 hour to adjust for Daylight Saving Time where and when it is observed.

PETAWAWA AWOS 2
ONTARIO

45°57'00.000" N
77°19'00.000" W
130.10 m
6106396
71625
YWA

Download Data

Hourly Data (October 2016)
Hourly Data Report for October 24, 2016
Temp Definition
°C
Dew Point Temp Definition
°C
Rel Hum Definition
%
Wind Dir Definition
10's deg

Wind Spd Definition
km/h
Visibility Definition
km
Stn Press Definition
kPa
Hmdx Definition


Wind Chill Definition


Weather Definition


TIME
00:00 4.7 1.4 79 30 22 14.5 99.25     LegendNANA
01:00 4.7 1.5 80 29 19 14.5 99.24     Drizzle
02:00 4.0 1.4 83 29 15 14.5 99.28     Rain
03:00 3.8 0.5 79 29 15 14.5 99.33     LegendNANA
04:00 3.4 0.0 78 31 15 14.5 99.40     LegendNANA
05:00 3.0 -0.2 80 29 11 14.5 99.47     LegendNANA
06:00 2.5 -1.0 78 29 13 14.5 99.54     LegendNANA
07:00 3.4 -1.1 72 30 13 14.5 99.64     LegendNANA
08:00 3.9 -0.6 72 30 19 14.5 99.75     Rain
09:00 3.7 -0.1 76 30 26 14.5 99.84     Rain
10:00 5.0 -1.0 65 29 20 14.5 99.89     Snow
11:00 5.1 -2.2 59 33 30 14.5 99.95     Snow
12:00 5.0 -1.8 61 33 24 14.5 99.99     Snow
13:00 4.9 -1.7 62 32 26 14.5 100.02     Snow
14:00 6.1 -2.8 53 32 24 14.5 100.01     Snow
15:00 7.2 -4.2 44 32 24 14.5 100.03     Snow
16:00 7.0 -4.3 44 31 22 14.5 100.08     Snow
17:00 5.8 -4.4 48 32 17 14.5 100.16     LegendNANA
18:00 3.9 -4.2 56 33 9 14.5 100.22     LegendNANA
19:00 2.9 -3.9 61 33 11 14.5 100.30     LegendNANA
20:00 3.2 -3.8 60 33 19 14.5 100.38     LegendNANA
21:00 2.7 -3.7 63 30 6 14.5 100.43     LegendNANA
22:00 2.9 -5.5 54 33 32 14.5 100.45     Snow
23:00 2.4 -5.2 57 32 24 14.5 100.47     LegendNANA

Notes on Data Quality.

Legend

  • E = Estimated
  • M = Missing
  • NA = Not Available
  • ‡ = Partner data that is not subject to review by the National Climate Archives
Date modified: